Cloud_Cover
100 30 7 100 100 100 54 3 0 0 0 0 0 0 0 0 0 4 3 0 13 2 0 0 0 0 0 3 70 74 100 96 79 74 5 3 2 1 94 95 100 30 76
100 94 47 5 42 100 22 0 0 0 0 0 0 0 0 0 0 2 2 0 4 9 0 0 3 0 0 4 100 11 98 60 64 83 26 5 5 7 100 84 100 100 100
100 100 100 22 6 4 2 0 0 0 0 0 0 0 0 0 0 0 0 0 0 0 0 5 0 8 19 16 76 32 84 96 79 67 54 6 5 5 13 31 62 100 50
100 100 100 100 100 18 9 0 0 0 0 0 0 0 0 0 0 0 0 0 0 0 0 0 0 6 4 8 63 74 69 99 49 54 100 59 23 8 6 9 19 100 88
100 100 100 100 100 100 100 0 0 0 0 0 0 0 0 0 0 0 0 0 0 0 0 0 4 0 0 0 7 26 92 85 99 100 100 100 100 97 14 13 11 95 99
100 100 100 99 95 98 2 0 0 0 0 0 0 0 0 0 0 0 0 0 0 0 0 0 0 0 2 3 2 11 60 90 100 89 54 98 26 28 6 0 24 100 70
100 100 100 100 100 98 30 2 1 1 0 0 0 0 0 0 0 0 0 0 0 0 0 0 0 0 0 0 8 27 18 67 100 100 62 5 15 5 3 3 7 98 100
92 78 84 88 59 100 100 100 50 5 0 0 0 0 0 0 0 0 0 0 4 6 4 2 0 0 0 0 0 5 5 13 100 100 40 86 85 5 1 35 90 100 100
62 9 6 18 82 80 97 100 72 68 2 0 0 0 0 0 0 0 2 0 3 5 5 4 5 2 0 0 0 5 5 5 79 61 56 94 47 81 39 88 87 100 86
100 100 76 86 100 10 5 1 2 97 98 54 0 0 0 0 0 0 22 0 0 3 5 15 5 5 0 0 0 4 59 11 27 30 11 46 76 23 49 70 93 100 100
100 99 69 100 92 100 70 43 24 13 98 76 56 1 2 1 5 1 0 0 0 0 1 5 5 5 0 4 17 2 67 100 92 97 69 100 100 7 65 78 98 92 100
100 91 23 73 96 97 76 59 41 100 31 26 6 0 0 0 23 3 0 69 4 0 0 4 0 5 0 0 42 29 100 100 100 100 100 100 87 31 12 90 92 100 100
100 100 46 87 97 93 98 100 89 5 34 99 94 100 8 4 3 45 23 40 33 8 0 0 1 5 55 63 66 81 92 100 100 100 100 100 100 89 46 96 100 100 100
98 100 100 100 95 84 79 75 62 29 39 95 98 96 8 4 10 3 19 32 86 80 30 7 20 90 100 72 85 100 100 100 100 100 100 100 100 100 82 91 100 100 100
80 23 100 100 100 100 67 100 86 62 45 14 30 29 16 4 0 1 36 59 6 40 70 67 96 100 100 100 100 100 100 100 100 100 100 100 100 100 100 100 100 100 100
56 17 36 99 100 100 100 99 68 87 100 100 100 99 78 79 95 99 100 100 100 100 99 57 100 100 100 100 100 100 100 100 100 100 100 100 100 100 100 100 100 100 100
100 41 23 45 88 100 100 100 100 99 100 100 100 100 100 100 100 100 100 100 100 100 83 100 100 100 100 100 100 100 100 100 100 100 100 100 100 100 89 100 100 100 100
91 2 17 28 23 83 100 100 100 100 100 75 90 100 100 100 100 100 100 99 59 94 18 100 100 100 100 100 100 100 100 100 100 86 100 100 100 100 100 100 100 100 100
2 2 0 35 15 36 81 98 100 100 100 100 100 100 100 100 100 100 100 100 100 78 35 100 100 100 100 98 100 100 100 100 96 100 100 100 100 100 100 100 100 100 100
1 0 0 1 30 13 29 51 88 98 100 100 100 100 100 100 100 100 100 100 100 98 85 100 100 100 100 99 91 100 100 100 100 93 91 100 100 100 100 100 100 100 100
0 0 0 0 0 24 17 30 32 63 100 100 100 100 100 100 100 100 100 100 100 100 100 100 100 100 100 100 100 100 100 100 100 100 100 100 100 100 100 100 100 100 100
0 0 0 0 0 0 0 1 19 4 45 90 100 100 100 100 100 100 100 100 100 100 100 100 100 100 100 100 100 100 100 100 100 100 100 100 100 99 100 100 80 99 100
0 0 0 0 0 0 0 0 0 0 0 45 99 100 100 100 100 100 100 100 100 100 100 100 100 100 100 100 100 100 100 100 100 100 100 100 100 100 100 100 42 55 100
0 0 0 0 0 0 0 0 1 0 0 0 7 22 80 100 100 100 100 100 100 100 100 100 100 100 100 100 100 100 100 100 100 100 100 100 100 100 100 100 69 37 99
0 0 0 0 0 0 0 0 5 5 4 0 0 0 0 24 99 100 100 100 100 100 100 100 100 100 100 100 100 100 100 100 100 100 100 100 100 100 100 100 100 81 76
5 2 1 1 3 1 5 5 0 5 0 0 0 2 18 5 15 87 100 100 100 100 100 100 100 100 100 100 100 100 100 100 100 100 100 100 100 100 100 100 100 100 100